Regional Weather Roundup
Issued by NWS Newport/Morehead, NC

Current Version | Previous Version | Text Only | Print | Product List | Glossary On
Versions: 1 2 3 4 5 6 7 8 9 10 11 12 13 14 15 16 17 18 19 20 21 22 23 24 25 26 27 28 29 30 31 32 33 34 35 36 37 38 39 40 41 42 43 44 45 46 47 48 49 50
000 ASUS42 KMHX 221213 RWRMHX WEATHER ROUNDUP FOR EASTERN NORTH CAROLINA NATIONAL WEATHER SERVICE NEWPORT/MOREHEAD CITY NC 800 AM EDT MON MAY 22 2017 NOTE: "FAIR" INDICATES FEW OR NO CLOUDS BELOW 12,000 FEET WITH NO SIGNIFICANT WEATHER AND/OR OBSTRUCTIONS TO VISIBILITY NCZ015>017-031-032-045>047-102-103-221300- NORTH COAST CITY SKY/WX TMP DP RH WIND PRES REMARKS EDENTON CLOUDY 73 70 89 S6 30.09S ELIZABETH CITY CLOUDY 73 70 90 SE9 30.08F KITTY HAWK NOT AVBL MANTEO RAIN 71 67 87 S9 30.10F $$ NCZ045>047-081-094-103-104-221300- CENTRAL COAST CITY SKY/WX TMP DP RH WIND PRES REMARKS FRISCO CLOUDY 74 69 85 SE5 30.10S $$ NCZ095-097-098-100-101-221300- SOUTHERN COAST CITY SKY/WX TMP DP RH WIND PRES REMARKS BEAUFORT CLOUDY 74 73 97 S5 30.09S CEDAR ISLAND NOT AVBL JACKSONVILLE MOSUNNY 74 71 91 S7 30.08S PINEY ISLAND CLOUDY N/A N/A N/A S6 30.09S WILMINGTON PTSUNNY 75 69 81 S7 30.08S $$ NCZ011>013-027>030-043-044-078>080-089-090>093-098-221300- COASTAL PLAIN CITY SKY/WX TMP DP RH WIND PRES REMARKS AHOSKIE N/A 65 64 99 CALM 30.08S FOG CLINTON PTSUNNY 72 70 95 S6 30.07R ELIZABETHTOWN CLOUDY 72 70 96 S10 30.08R GOLDSBORO CLOUDY 71 71 100 S5 30.05R GREENVILLE CLOUDY 70 70 100 SE5 30.08F FOG HAVELOCK NOT AVBL KENANSVILLE PTSUNNY 70 68 94 CALM 30.07S KINSTON CLOUDY 72 70 94 CALM 30.08S NEW BERN PTSUNNY 72 71 97 S6 30.10S RICHLANDS CLOUDY 72 70 93 S9 30.08S ROCKY MOUNT LGT RAIN 67 67 100 SE5 30.05F FOG WASHINGTON FOG 68 67 94 SE3 30.08S VSB 1 WHITEVILLE CLOUDY 72 70 94 S3 30.07F $$ AMZ130-135-150-152-154-156-158-170-250-252-270-ANZ085-086-088-633-658-670-221300- MARINE OBSERVATIONS STATION/POSITION TIME TEMP WIND PRES WAVE SWELL AIR SEA DIR/SP/G HT/PER HT/PER (UTC) (F) (DEG/KT/KT) (MB) (FT/S) (FT/S) CHESAPEAKE LIGHT NOT AVBL 64 E VA BEACH 1150 70 69 160/ 8/ 10 1020.0 5/ 8 5/ 8 DUCK 1148 68 66 150/ 13/ 14 1018.4 2 E DUCK 1200 66 N/A 4/ 8 OREGON INLET 1142 68 69 120/ 4/ 5 1019.2 13E OREGON INLT 1148 65 N/A 4/ 7 3/ 7 HATTERAS CG 1148 73 74 150/ 6/ 7 1019.1 DIAMOND BUOY 1150 73 78 140/ 6/ 6 1019.5 4/ 9 3/ 9 CAPE LOOKOUT 1200 73 230/ 2/ 3 1018.7 BEAUFORT LAB 1148 74 73 190/ 4/ 5 1018.3 30 SE NEW RVR IN 1108 76 76 250/ 14/ 17 1018.9 30 SE NEW RVR IN 1143 76 N/A 3/ 8 27 SE WRIGHTSVLE 1108 75 75 210/ 12/ 16 1018.2 5 SE WRIGHTSVLE 1108 76 75 190/ 10/ 17 1018.6 225 S CAPE HAT 1150 75 77 210/ 8/ 10 1020.4 3/ 8 3/ 8 41 SE CHARLESTON 1150 77 77 190/ 14/ 17 1018.5 3/ 5 2/ 9 $$

USA.gov is the U.S. government's official web portal to all federal, state and local government web resources and services.